PAL336 RPLL-ZSPD

Flight info

Callsign PAL336
Flight time N/A
Altitude 38000
Route CAB2R CAB A461 NOMAN DCT DOTMI/K0906S1190 A470 LJG B221 SHZ W58 BK BK83A
Aircraft B77W/H-SDE1E2E3FGHIJ2J3J4J5M1RWXY/LB1D1

Departure

Time N/A
Airport Ninoy Aquino International Airport (RPLL)

Arrival

Time 2026-05-05 12:05
Airport Shanghai Pudong International Airport (ZSPD)
Time Latitude Longitude Altitude Speed Heading
2026-05-05 11:18 26.80741 119.96069 36075 ft 539 kts 27°
2026-05-05 11:18 26.87132 120.00584 36071 ft 539 kts 27°
2026-05-05 11:19 26.93480 120.05080 36072 ft 541 kts 27°
2026-05-05 11:19 26.99870 120.09613 36068 ft 541 kts 27°
2026-05-05 11:20 27.06261 120.14154 36069 ft 539 kts 27°
2026-05-05 11:20 27.12592 120.18657 36066 ft 540 kts 27°
2026-05-05 11:21 27.19008 120.23191 36068 ft 538 kts 26°
2026-05-05 11:21 27.25422 120.27715 36065 ft 542 kts 26°
2026-05-05 11:22 27.31788 120.32217 36062 ft 539 kts 27°
2026-05-05 11:22 27.38197 120.36754 36066 ft 541 kts 27°
2026-05-05 11:23 27.44552 120.41270 36077 ft 542 kts 27°
2026-05-05 11:23 27.50968 120.45837 36073 ft 540 kts 27°
2026-05-05 11:24 27.57327 120.50371 36068 ft 540 kts 27°
2026-05-05 11:24 27.63719 120.54932 36067 ft 540 kts 27°
2026-05-05 11:25 27.70087 120.59465 36066 ft 539 kts 24°
2026-05-05 11:25 27.76862 120.62665 36074 ft 523 kts
2026-05-05 11:25 27.80409 120.63417 36065 ft 512 kts 358°
2026-05-05 11:26 27.83979 120.63808 36070 ft 510 kts 356°
2026-05-05 11:26 27.91066 120.64481 36078 ft 509 kts 356°
2026-05-05 11:27 27.98137 120.65146 36070 ft 512 kts 356°
2026-05-05 11:27 28.05254 120.65817 36061 ft 513 kts 357°
2026-05-05 11:28 28.12334 120.66515 36054 ft 510 kts 357°
2026-05-05 11:28 28.19539 120.67224 36054 ft 512 kts 357°
2026-05-05 11:29 28.26627 120.67922 36052 ft 511 kts 357°
2026-05-05 11:29 28.33724 120.68620 36055 ft 512 kts 357°
2026-05-05 11:30 28.40818 120.69321 36062 ft 510 kts 357°
2026-05-05 11:30 28.47975 120.70029 36058 ft 512 kts 357°
2026-05-05 11:31 28.55018 120.70740 36063 ft 508 kts 357°
2026-05-05 11:31 28.62138 120.71457 36062 ft 510 kts 357°
2026-05-05 11:32 28.69263 120.72176 36060 ft 513 kts 357°
2026-05-05 11:32 28.76381 120.72946 36063 ft 511 kts 358°
2026-05-05 11:33 28.83474 120.73729 36056 ft 511 kts 358°
2026-05-05 11:33 28.90550 120.74485 36055 ft 511 kts 358°
2026-05-05 11:34 28.97646 120.75213 36047 ft 510 kts 358°
2026-05-05 11:34 29.04732 120.75941 36049 ft 510 kts 358°
2026-05-05 11:35 29.11814 120.76671 36047 ft 510 kts 358°
2026-05-05 11:35 29.18929 120.77406 36040 ft 506 kts 358°
2026-05-05 11:36 29.25958 120.78132 36044 ft 507 kts 358°
2026-05-05 11:36 29.32226 120.78781 36035 ft 506 kts 358°
2026-05-05 11:37 29.39257 120.79511 36025 ft 505 kts 358°
2026-05-05 11:37 29.46265 120.80238 36022 ft 504 kts 358°
2026-05-05 11:37 29.49712 120.80613 35772 ft 499 kts
2026-05-05 11:38 29.53194 120.81389 34927 ft 511 kts 10°
2026-05-05 11:38 29.56565 120.82747 33983 ft 524 kts 19°
2026-05-05 11:38 29.59862 120.84735 33046 ft 534 kts 28°
2026-05-05 11:38 29.62870 120.87229 32138 ft 544 kts 37°
2026-05-05 11:39 29.65593 120.90257 31182 ft 552 kts 46°
2026-05-05 11:39 29.67937 120.93805 30379 ft 553 kts 57°
2026-05-05 11:39 29.69919 120.97553 29828 ft 548 kts 58°
2026-05-05 11:39 29.71877 121.01297 29205 ft 543 kts 58°
2026-05-05 11:40 29.73827 121.04964 28569 ft 538 kts 57°
2026-05-05 11:40 29.75808 121.08623 27927 ft 533 kts 57°
2026-05-05 11:40 29.77770 121.12206 27284 ft 528 kts 56°
2026-05-05 11:40 29.79748 121.15782 26644 ft 523 kts 56°
2026-05-05 11:41 29.81702 121.19293 25992 ft 517 kts 56°
2026-05-05 11:41 29.83624 121.22727 25344 ft 512 kts 56°
2026-05-05 11:41 29.85567 121.26187 24714 ft 506 kts 55°
2026-05-05 11:41 29.87532 121.29489 24067 ft 499 kts 50°
2026-05-05 11:42 29.89847 121.32425 23439 ft 490 kts 40°
2026-05-05 11:42 29.92478 121.34877 22794 ft 480 kts 31°
2026-05-05 11:42 29.95293 121.36845 22146 ft 472 kts 26°
2026-05-05 11:42 29.98130 121.38667 21551 ft 466 kts 26°
2026-05-05 11:43 30.00956 121.40463 20935 ft 460 kts 26°
2026-05-05 11:43 30.03758 121.42238 20312 ft 454 kts 26°
2026-05-05 11:43 30.06504 121.43973 19712 ft 448 kts 26°
2026-05-05 11:43 30.09218 121.45685 19096 ft 443 kts 26°
2026-05-05 11:44 30.11896 121.47372 18503 ft 437 kts 26°
2026-05-05 11:44 30.14579 121.49062 17892 ft 431 kts 26°
2026-05-05 11:44 30.17212 121.50719 17305 ft 425 kts 26°
2026-05-05 11:44 30.19779 121.52335 16724 ft 420 kts 26°
2026-05-05 11:45 30.22322 121.53936 16139 ft 415 kts 26°
2026-05-05 11:45 30.24842 121.55523 15556 ft 410 kts 26°
2026-05-05 11:45 30.27349 121.57121 14972 ft 405 kts 27°
2026-05-05 11:45 30.29799 121.58708 14396 ft 400 kts 27°
2026-05-05 11:46 30.32203 121.60268 13826 ft 396 kts 27°
2026-05-05 11:46 30.34594 121.61819 13322 ft 390 kts 27°
2026-05-05 11:46 30.36936 121.63339 13017 ft 378 kts 28°
2026-05-05 11:46 30.39176 121.64881 12733 ft 369 kts 30°
2026-05-05 11:47 30.41394 121.66346 12442 ft 365 kts 24°
2026-05-05 11:47 30.43736 121.67480 12156 ft 363 kts 21°
2026-05-05 11:47 30.46095 121.68576 11863 ft 361 kts 21°
2026-05-05 11:47 30.48395 121.69644 11577 ft 360 kts 21°
2026-05-05 11:48 30.53055 121.71809 10992 ft 357 kts 21°
2026-05-05 11:48 30.55366 121.72882 10701 ft 356 kts 21°
2026-05-05 11:48 30.57669 121.73954 10409 ft 354 kts 21°
2026-05-05 11:49 30.59950 121.75015 10118 ft 353 kts 21°
2026-05-05 11:49 30.62230 121.76077 9825 ft 350 kts 21°
2026-05-05 11:49 30.64498 121.77133 9533 ft 350 kts 21°
2026-05-05 11:49 30.66748 121.78181 9239 ft 347 kts 22°
2026-05-05 11:50 30.68993 121.79228 8946 ft 346 kts 22°
2026-05-05 11:50 30.71232 121.80273 8650 ft 343 kts 22°
2026-05-05 11:50 30.73431 121.81299 8361 ft 343 kts 22°
2026-05-05 11:50 30.75660 121.82340 8064 ft 342 kts 22°
2026-05-05 11:51 30.77853 121.83364 7772 ft 341 kts 22°
2026-05-05 11:51 30.80057 121.84395 7478 ft 341 kts 22°
2026-05-05 11:51 30.82282 121.85435 7181 ft 340 kts 22°
2026-05-05 11:51 30.84478 121.86462 6938 ft 337 kts 22°
2026-05-05 11:52 30.86654 121.87482 6819 ft 339 kts 22°
2026-05-05 11:52 30.88868 121.88518 6572 ft 336 kts 22°
2026-05-05 11:52 30.91039 121.89535 6335 ft 335 kts 22°
2026-05-05 11:52 30.93215 121.90556 6087 ft 334 kts 22°
2026-05-05 11:53 30.95376 121.91569 5840 ft 333 kts 22°
2026-05-05 11:53 30.97510 121.92570 5590 ft 332 kts 22°
2026-05-05 11:53 30.99666 121.93584 5320 ft 331 kts 23°
2026-05-05 11:53 31.01823 121.94596 5211 ft 330 kts 23°
2026-05-05 11:54 31.03960 121.95601 5205 ft 332 kts 23°
2026-05-05 11:54 31.06115 121.96600 5191 ft 332 kts 20°
2026-05-05 11:54 31.08414 121.96998 5191 ft 334 kts 358°
2026-05-05 11:54 31.10695 121.96497 5201 ft 335 kts 345°
2026-05-05 11:55 31.12965 121.95692 5162 ft 336 kts 342°
2026-05-05 11:55 31.15185 121.94859 4937 ft 335 kts 342°
2026-05-05 11:55 31.17408 121.94019 4693 ft 334 kts 342°
2026-05-05 11:55 31.19640 121.93178 4446 ft 334 kts 342°
2026-05-05 11:56 31.21859 121.92342 4200 ft 333 kts 342°
2026-05-05 11:56 31.24055 121.91515 4023 ft 331 kts 342°
2026-05-05 11:56 31.26265 121.90683 4005 ft 332 kts 342°
2026-05-05 11:56 31.28486 121.89846 4003 ft 333 kts 342°
2026-05-05 11:57 31.30704 121.89010 4002 ft 333 kts 342°
2026-05-05 11:57 31.32894 121.88184 3779 ft 326 kts 342°
2026-05-05 11:57 31.34296 121.87654 3601 ft 312 kts 342°
2026-05-05 11:57 31.36304 121.86897 3359 ft 294 kts 342°
2026-05-05 11:58 31.38172 121.86127 3110 ft 279 kts 332°
2026-05-05 11:58 31.39605 121.84704 2988 ft 259 kts 301°
2026-05-05 11:58 31.40196 121.82851 2978 ft 234 kts 271°
2026-05-05 11:58 31.40166 121.80999 3007 ft 224 kts 264°
2026-05-05 11:59 31.40072 121.79193 3000 ft 223 kts 263°
2026-05-05 11:59 31.39805 121.77420 2983 ft 218 kts 242°
2026-05-05 11:59 31.38837 121.76122 2967 ft 212 kts 208°
2026-05-05 11:59 31.37438 121.75526 2987 ft 212 kts 194°
2026-05-05 12:00 31.36008 121.75074 2985 ft 212 kts 193°
2026-05-05 12:00 31.34549 121.74915 2985 ft 210 kts 174°
2026-05-05 12:00 31.33113 121.75234 2987 ft 208 kts 165°
2026-05-05 12:00 31.31773 121.75701 2983 ft 193 kts 162°
2026-05-05 12:01 31.30555 121.76157 2942 ft 179 kts 162°
2026-05-05 12:01 31.29366 121.76605 2711 ft 174 kts 162°
2026-05-05 12:01 31.28242 121.77027 2489 ft 166 kts 163°
2026-05-05 12:01 31.27183 121.77425 2277 ft 150 kts 163°
2026-05-05 12:02 31.26221 121.77786 2093 ft 141 kts 163°
2026-05-05 12:02 31.25311 121.78130 1920 ft 134 kts 163°
2026-05-05 12:02 31.24427 121.78462 1744 ft 130 kts 164°
2026-05-05 12:02 31.23573 121.78783 1577 ft 129 kts 164°
2026-05-05 12:03 31.22709 121.79108 1405 ft 130 kts 163°
2026-05-05 12:03 31.21851 121.79432 1233 ft 130 kts 163°
2026-05-05 12:03 31.20972 121.79762 1063 ft 133 kts 163°
2026-05-05 12:03 31.20078 121.80101 893 ft 136 kts 163°
2026-05-05 12:04 31.19180 121.80434 709 ft 135 kts 163°
2026-05-05 12:04 31.18292 121.80770 523 ft 135 kts 162°
2026-05-05 12:04 31.17380 121.81110 338 ft 136 kts 162°
2026-05-05 12:04 31.16467 121.81450 158 ft 138 kts 162°
2026-05-05 12:05 31.15554 121.81793 30 ft 133 kts 161°
2026-05-05 12:05 31.14783 121.82083 28 ft 97 kts 162°
2026-05-05 12:05 31.14259 121.82282 28 ft 55 kts 161°
2026-05-05 12:05 31.14010 121.82306 28 ft 22 kts 189°
2026-05-05 12:06 31.13863 121.82276 28 ft 20 kts 189°
2026-05-05 12:06 31.13728 121.82276 28 ft 17 kts 169°
2026-05-05 12:06 31.13648 121.82210 28 ft 16 kts 255°
2026-05-05 12:06 31.13608 121.82056 28 ft 22 kts 252°
2026-05-05 12:07 31.13564 121.81897 28 ft 18 kts 262°
2026-05-05 12:07 31.13648 121.81807 28 ft 18 kts 341°
2026-05-05 12:07 31.13771 121.81760 28 ft 18 kts 342°
2026-05-05 12:07 31.13894 121.81714 28 ft 19 kts 341°
2026-05-05 12:08 31.14028 121.81662 28 ft 21 kts 343°
2026-05-05 12:08 31.14176 121.81607 28 ft 22 kts 342°
2026-05-05 12:08 31.14335 121.81548 28 ft 23 kts 341°
2026-05-05 12:08 31.14485 121.81486 28 ft 21 kts 322°
2026-05-05 12:09 31.14484 121.81328 28 ft 20 kts 253°
2026-05-05 12:09 31.14441 121.81175 28 ft 19 kts 252°
2026-05-05 12:09 31.14399 121.81026 28 ft 18 kts 252°
2026-05-05 12:09 31.14360 121.80883 28 ft 17 kts 252°
2026-05-05 12:10 31.14308 121.80764 28 ft 15 kts 200°
2026-05-05 12:10 31.14203 121.80786 28 ft 15 kts 163°
2026-05-05 12:10 31.14108 121.80822 28 ft 14 kts 162°
2026-05-05 12:10 31.14015 121.80856 28 ft 13 kts 162°
2026-05-05 12:11 31.13924 121.80891 28 ft 13 kts 162°
2026-05-05 12:11 31.13828 121.80930 28 ft 15 kts 161°
2026-05-05 12:11 31.13784 121.80948 28 ft 1 kts 161°
2026-05-05 12:11 31.13779 121.80949 28 ft 0 kts 161°